Torna al catalogo

STARLINK-36757

AttivoComunicazioniSSO
NORAD 67728·PAYLOAD·🇺🇸 United States

Lanciato Feb 11, 2026 da Vandenberg Space Force Base

Loading…

Prossimi Passaggi (prossime 24 ore)

TLE

AggiornatoSource: CelesTrak SupGP

Epoca: Sep 15, 2026, 03:33 UTC

1 67728C 26026H   26258.14840278  .00005633  00000+0  17482-3 0  2582
2 67728  97.2842 310.0285 0000840  86.9626  90.3453 15.33441643    11

Traccia STARLINK-36757 in tempo reale con AllMySat

Download on the App Store